{"data":{"norad_id":62426,"intl_designator":"2024-249T","name":"STARLINK-32676","alt_names":[],"object_type":"PAYLOAD","status":"ACTIVE","operator":null,"country":"US","launch_date":"2024-12-23","launch_site_code":"AFETR","launch_vehicle":null,"mission":null,"orbit_class":"UNKNOWN","rcs_meters":null,"size_class":null,"mass_kg":null,"dimensions":null,"purposes":["comms"],"wikipedia_slug":null,"has_3d_model":false,"image_url":null,"decayed_at":null,"tle_current":{"epoch":"2026-09-21T18:07:46.951392Z","epoch_age_seconds":66110,"freshness":"FRESH","line1":"1 62426U 24249T   26264.75540453  .00015181  00000+0  55975-3 0  9993","line2":"2 62426  43.0005 287.2904 0002203 280.7193  79.3410 15.27597804 97797","mean_motion":15.27597804,"eccentricity":0.0002203,"inclination_deg":43.0005,"raan_deg":287.2904,"arg_perigee_deg":280.7193,"mean_anomaly_deg":79.341,"bstar":0.00055975,"rev_number":9779,"period_min":94.2656500441,"perigee_km":481.48427742395,"apogee_km":484.50729252901,"semimajor_km":6861.1327849765,"source":"CELESTRAK","updated_at":"2026-09-22T09:00:49.578829Z"}}}